Location: Godzisko
(49.9648°N, 19.4576°E)
Time: 02:08:41
(UTC+00:00)

Gbstr 26 Del rocket - Pass Details

Date: 20 April 2021
Orbit: 493 x 1263 km, 51.8° (Epoch: 15 May)

Event Time Altitude Azimuth Distance (km) Brightness Sun altitude
Exits shadow 00:09:24 54° 149° (SSE) 1,051 3.9 -25.5°
Drops below altitude 10° 00:14:35 10° 74° (ENE) 2,283 6.5 -25.2°
Sets 00:16:48 0° 70° (ENE) 3,100 7.3 -25.0°
